IAM3181 LIRZ-LIMC

Flight info

Callsign IAM3181
Flight time N/A
Altitude 38000
Route GITOD M726 IPGOR DCT LOMED DCT BEROK DCT MIVKI DCT GOLAS DCT MEBUR
Aircraft A319/M-SDE3FGHIRWY/LB1

Departure

Time 2026-05-05 19:44
Airport Perugia San Francesco d'Assisi – Umbria International Airport (LIRZ)

Arrival

Time N/A
Airport Milan Malpensa International Airport (LIMC)
Time Latitude Longitude Altitude Speed Heading
2026-05-05 19:25 43.09378 12.50489 672 ft 0 kts
2026-05-05 19:35 43.09360 12.50503 672 ft 0 kts
2026-05-05 19:35 43.09354 12.50536 672 ft 0 kts
2026-05-05 19:35 43.09334 12.50577 671 ft 0 kts
2026-05-05 19:35 43.09290 12.50613 671 ft 0 kts
2026-05-05 19:36 43.09218 12.50670 671 ft 0 kts
2026-05-05 19:36 43.09108 12.50793 669 ft 0 kts
2026-05-05 19:36 43.09035 12.51017 668 ft 0 kts
2026-05-05 19:36 43.09090 12.51154 668 ft 0 kts
2026-05-05 19:37 43.09259 12.51203 671 ft 0 kts
2026-05-05 19:37 43.09467 12.51282 674 ft 0 kts
2026-05-05 19:37 43.09703 12.51363 676 ft 0 kts
2026-05-05 19:37 43.09930 12.51441 680 ft 0 kts
2026-05-05 19:38 43.10150 12.51514 684 ft 0 kts
2026-05-05 19:38 43.10368 12.51591 688 ft 0 kts
2026-05-05 19:38 43.10585 12.51664 689 ft 0 kts
2026-05-05 19:38 43.10736 12.51697 692 ft 0 kts
2026-05-05 19:39 43.10723 12.51721 692 ft 0 kts
2026-05-05 19:39 43.10683 12.51705 691 ft 0 kts
2026-05-05 19:39 43.10295 12.51568 687 ft 0 kts
2026-05-05 19:39 43.09414 12.51263 874 ft 0 kts
2026-05-05 19:40 43.08423 12.50928 1582 ft 0 kts
2026-05-05 19:40 43.07422 12.50579 2343 ft 0 kts
2026-05-05 19:40 43.06366 12.50194 2990 ft 0 kts
2026-05-05 19:40 43.05215 12.49772 3589 ft 0 kts
2026-05-05 19:41 43.03976 12.49144 4206 ft 0 kts
2026-05-05 19:41 43.02731 12.48167 4803 ft 0 kts
2026-05-05 19:41 43.01403 12.46999 5653 ft 0 kts
2026-05-05 19:41 43.00061 12.45938 6776 ft 0 kts
2026-05-05 19:42 42.98702 12.44894 7732 ft 0 kts
2026-05-05 19:42 42.97306 12.43838 8650 ft 0 kts
2026-05-05 19:42 42.95869 12.42760 9563 ft 0 kts
2026-05-05 19:42 42.94717 12.41900 10266 ft 0 kts
2026-05-05 19:43 42.93229 12.40792 11138 ft 0 kts
2026-05-05 19:43 42.91720 12.39669 11980 ft 0 kts
2026-05-05 19:43 42.90183 12.38528 12793 ft 0 kts
2026-05-05 19:43 42.88695 12.37159 13360 ft 0 kts
2026-05-05 19:44 42.87586 12.35037 13836 ft 0 kts
2026-05-05 19:44 42.87167 12.31841 14373 ft 296 kts 277°
2026-05-05 19:44 42.87650 12.29049 14805 ft 310 kts 295°
2026-05-05 19:44 42.88839 12.26570 15262 ft 323 kts 315°
2026-05-05 19:45 42.90523 12.24600 16023 ft 327 kts 321°
2026-05-05 19:45 42.92312 12.22687 16861 ft 329 kts 322°
2026-05-05 19:45 42.94111 12.20773 17655 ft 331 kts 322°
2026-05-05 19:45 42.95919 12.18837 18424 ft 334 kts 321°
2026-05-05 19:46 42.97743 12.16874 19174 ft 336 kts 321°
2026-05-05 19:46 42.99586 12.14884 19908 ft 338 kts 321°
2026-05-05 19:46 43.01452 12.12862 20632 ft 341 kts 321°
2026-05-05 19:46 43.03290 12.10866 21325 ft 343 kts 321°
2026-05-05 19:47 43.05166 12.08826 22006 ft 345 kts 321°
2026-05-05 19:47 43.07033 12.06791 22668 ft 347 kts 321°
2026-05-05 19:47 43.08919 12.04733 23316 ft 349 kts 321°
2026-05-05 19:47 43.10807 12.02674 23941 ft 351 kts 321°
2026-05-05 19:48 43.12724 12.00592 24560 ft 353 kts 321°
2026-05-05 19:48 43.14647 11.98503 25157 ft 355 kts 321°
2026-05-05 19:48 43.16579 11.96398 25647 ft 359 kts 321°
2026-05-05 19:48 43.18587 11.94206 25856 ft 371 kts 321°
2026-05-05 19:49 43.20627 11.91976 26140 ft 379 kts 321°
2026-05-05 19:49 43.21993 11.90480 26434 ft 381 kts 321°
2026-05-05 19:49 43.24750 11.87457 27103 ft 384 kts 321°
2026-05-05 19:49 43.26827 11.85177 27588 ft 385 kts 321°
2026-05-05 19:50 43.28912 11.82884 28058 ft 387 kts 321°
2026-05-05 19:50 43.31044 11.80538 28517 ft 389 kts 321°
2026-05-05 19:50 43.33057 11.78321 28933 ft 391 kts 321°
2026-05-05 19:50 43.35249 11.75904 29429 ft 391 kts 321°
2026-05-05 19:51 43.37344 11.73590 29888 ft 392 kts 321°
2026-05-05 19:51 43.39482 11.71229 30308 ft 393 kts 321°
2026-05-05 19:51 43.41600 11.68887 30823 ft 391 kts 322°
2026-05-05 19:51 43.43693 11.66568 31382 ft 388 kts 322°
2026-05-05 19:52 43.45780 11.64255 31922 ft 385 kts 322°
2026-05-05 19:52 43.47823 11.61988 32423 ft 383 kts 322°
2026-05-05 19:52 43.49883 11.59699 32850 ft 383 kts 322°
2026-05-05 19:52 43.51951 11.57400 33214 ft 383 kts 322°
2026-05-05 19:53 43.54000 11.55122 33510 ft 384 kts 322°
2026-05-05 19:53 43.56110 11.52775 33672 ft 385 kts 322°
2026-05-05 19:53 43.58144 11.50510 33796 ft 385 kts 322°
2026-05-05 19:53 43.60216 11.48199 33922 ft 386 kts 322°
2026-05-05 19:54 43.62297 11.45877 33976 ft 386 kts 322°
2026-05-05 19:54 43.66455 11.41229 33988 ft 386 kts 322°
2026-05-05 19:55 43.70531 11.36665 33990 ft 386 kts 322°
2026-05-05 19:55 43.74696 11.31979 33991 ft 386 kts 321°
2026-05-05 19:56 43.78845 11.27293 33991 ft 386 kts 322°
2026-05-05 19:56 43.82976 11.22634 33991 ft 386 kts 322°
2026-05-05 19:57 43.87094 11.17986 33991 ft 386 kts 322°
2026-05-05 19:57 43.91263 11.13275 33991 ft 386 kts 322°
2026-05-05 19:58 43.95417 11.08561 33990 ft 386 kts 321°
2026-05-05 19:58 43.99210 11.03265 33989 ft 388 kts 312°
2026-05-05 19:59 44.02353 10.97109 33987 ft 393 kts 303°
2026-05-05 19:59 44.04741 10.90201 33986 ft 401 kts 294°
2026-05-05 20:00 44.06467 10.82722 33989 ft 406 kts 290°
2026-05-05 20:00 44.08076 10.75202 33990 ft 407 kts 289°
2026-05-05 20:01 44.09688 10.67605 33990 ft 407 kts 289°
2026-05-05 20:01 44.11304 10.60066 33992 ft 407 kts 290°
2026-05-05 20:02 44.12915 10.52543 33992 ft 407 kts 289°
2026-05-05 20:02 44.14518 10.44941 33989 ft 407 kts 289°
2026-05-05 20:03 44.16103 10.37382 33983 ft 407 kts 289°
2026-05-05 20:03 44.17685 10.29812 33975 ft 407 kts 289°
2026-05-05 20:04 44.19267 10.22230 33968 ft 407 kts 289°
2026-05-05 20:04 44.20966 10.14731 33964 ft 406 kts 292°
2026-05-05 20:05 44.23142 10.07550 33963 ft 405 kts 297°
2026-05-05 20:05 44.25824 10.00703 33963 ft 404 kts 303°
2026-05-05 20:05 44.27369 9.97376 33765 ft 404 kts 306°
2026-05-05 20:06 44.28971 9.94189 33515 ft 402 kts 306°
2026-05-05 20:06 44.30579 9.91034 33229 ft 400 kts 306°
2026-05-05 20:06 44.32206 9.87853 32769 ft 398 kts 306°
2026-05-05 20:06 44.33811 9.84713 32172 ft 398 kts 306°
2026-05-05 20:07 44.35402 9.81597 31481 ft 399 kts 306°
2026-05-05 20:07 44.37007 9.78448 30733 ft 401 kts 306°
2026-05-05 20:07 44.38641 9.75238 29950 ft 403 kts 306°
2026-05-05 20:07 44.40249 9.72073 29339 ft 400 kts 306°
2026-05-05 20:08 44.41839 9.68944 28831 ft 395 kts 306°
2026-05-05 20:08 44.43437 9.65800 28305 ft 390 kts 307°
2026-05-05 20:08 44.45059 9.62819 27793 ft 385 kts 309°
2026-05-05 20:08 44.46785 9.59958 27279 ft 381 kts 312°
2026-05-05 20:09 44.48604 9.57215 26763 ft 376 kts 314°
2026-05-05 20:09 44.50400 9.54592 26280 ft 371 kts 314°
2026-05-05 20:09 44.52175 9.52008 25896 ft 363 kts 314°
2026-05-05 20:09 44.53910 9.49481 25537 ft 355 kts 314°
2026-05-05 20:10 44.55598 9.47020 25108 ft 350 kts 314°
2026-05-05 20:10 44.57287 9.44556 24691 ft 344 kts 314°
2026-05-05 20:10 44.58905 9.42191 24295 ft 339 kts 314°
2026-05-05 20:10 44.60525 9.39823 23906 ft 334 kts 314°
2026-05-05 20:11 44.62121 9.37487 23527 ft 329 kts 314°
2026-05-05 20:11 44.63696 9.35181 23153 ft 324 kts 314°
2026-05-05 20:11 44.65236 9.32916 22750 ft 320 kts 313°
2026-05-05 20:11 44.66753 9.30677 22308 ft 319 kts 313°
2026-05-05 20:12 44.68272 9.28437 21864 ft 317 kts 313°
2026-05-05 20:12 44.69785 9.26209 21424 ft 315 kts 313°
2026-05-05 20:12 44.71311 9.23958 21066 ft 310 kts 313°
2026-05-05 20:12 44.72781 9.21787 20769 ft 305 kts 313°
2026-05-05 20:13 44.74239 9.19637 20472 ft 299 kts 313°
2026-05-05 20:13 44.75653 9.17550 20200 ft 293 kts 313°
2026-05-05 20:13 44.77188 9.15705 20083 ft 282 kts 332°
2026-05-05 20:13 44.79089 9.15133 19993 ft 276 kts 360°
2026-05-05 20:14 44.80905 9.15826 19866 ft 274 kts 24°
2026-05-05 20:14 44.82358 9.17550 19723 ft 275 kts 49°
2026-05-05 20:14 44.83155 9.20010 19575 ft 279 kts 76°
2026-05-05 20:14 44.83127 9.22746 19428 ft 285 kts 102°
2026-05-05 20:15 44.82241 9.25261 19276 ft 287 kts 131°
2026-05-05 20:15 44.80719 9.27070 19135 ft 286 kts 147°
2026-05-05 20:15 44.79047 9.28624 18983 ft 285 kts 148°
2026-05-05 20:15 44.77376 9.30156 18838 ft 284 kts 148°
2026-05-05 20:16 44.75730 9.31714 18763 ft 284 kts 147°
2026-05-05 20:16 44.74088 9.33301 18649 ft 283 kts 149°
2026-05-05 20:16 44.72289 9.34305 18502 ft 276 kts 179°
2026-05-05 20:16 44.70433 9.33957 18378 ft 266 kts 207°
2026-05-05 20:17 44.68911 9.32541 18252 ft 256 kts 232°
2026-05-05 20:17 44.67977 9.30452 18127 ft 247 kts 256°
2026-05-05 20:17 44.67720 9.28119 18005 ft 240 kts 277°
2026-05-05 20:17 44.68110 9.25887 17883 ft 236 kts 297°
2026-05-05 20:18 44.69074 9.24020 17759 ft 235 kts 318°
2026-05-05 20:18 44.70370 9.22631 17639 ft 234 kts 323°
2026-05-05 20:18 44.71694 9.21333 17395 ft 232 kts 324°
2026-05-05 20:18 44.73031 9.20026 17057 ft 232 kts 324°
2026-05-05 20:19 44.74331 9.18747 16749 ft 232 kts 324°
2026-05-05 20:19 44.75658 9.17436 16445 ft 231 kts 324°
2026-05-05 20:19 44.77022 9.16326 16137 ft 233 kts 339°
2026-05-05 20:19 44.78640 9.16006 15817 ft 237 kts
2026-05-05 20:20 44.80241 9.16609 15504 ft 242 kts 24°
2026-05-05 20:20 44.81573 9.18057 15197 ft 248 kts 46°
2026-05-05 20:20 44.82425 9.20207 14889 ft 254 kts 71°
2026-05-05 20:20 44.82586 9.22695 14591 ft 259 kts 96°
2026-05-05 20:21 44.82001 9.25068 14297 ft 260 kts 122°
2026-05-05 20:21 44.80777 9.26911 14010 ft 258 kts 143°
2026-05-05 20:21 44.79305 9.28357 13743 ft 256 kts 147°
2026-05-05 20:21 44.77813 9.29736 13467 ft 255 kts 147°
2026-05-05 20:22 44.76350 9.31113 13197 ft 253 kts 147°
2026-05-05 20:22 44.74904 9.32509 12927 ft 252 kts 146°
2026-05-05 20:22 44.73399 9.33789 12642 ft 250 kts 161°
2026-05-05 20:22 44.71701 9.34210 12346 ft 244 kts 187°
2026-05-05 20:23 44.70087 9.33620 12062 ft 238 kts 210°
2026-05-05 20:23 44.68800 9.32248 11776 ft 231 kts 233°
2026-05-05 20:23 44.67990 9.30327 11492 ft 226 kts 254°
2026-05-05 20:23 44.67746 9.28173 11209 ft 221 kts 274°
2026-05-05 20:24 44.68061 9.26093 10995 ft 217 kts 294°
2026-05-05 20:24 44.68885 9.24293 10973 ft 218 kts 314°
2026-05-05 20:24 44.70062 9.22929 10971 ft 219 kts 323°
2026-05-05 20:24 44.71294 9.21713 10967 ft 219 kts 324°
2026-05-05 20:25 44.72570 9.20472 10966 ft 219 kts 324°
2026-05-05 20:25 44.73815 9.19253 10965 ft 219 kts 324°
2026-05-05 20:25 44.75064 9.18022 10964 ft 219 kts 324°
2026-05-05 20:25 44.76330 9.16796 10963 ft 219 kts 329°
2026-05-05 20:26 44.77758 9.16070 10963 ft 222 kts 350°
2026-05-05 20:26 44.79321 9.16145 10964 ft 225 kts 11°
2026-05-05 20:26 44.80761 9.17029 10964 ft 230 kts 32°
2026-05-05 20:26 44.81890 9.18632 10963 ft 234 kts 54°
2026-05-05 20:27 44.82523 9.20778 10962 ft 238 kts 77°
2026-05-05 20:27 44.82525 9.23123 10961 ft 241 kts 101°
2026-05-05 20:27 44.81954 9.25355 10972 ft 251 kts 110°
2026-05-05 20:27 44.81632 9.27894 10964 ft 278 kts 81°
2026-05-05 20:28 44.82373 9.30516 10969 ft 306 kts 49°
2026-05-05 20:28 44.84085 9.32417 10959 ft 319 kts 21°
2026-05-05 20:28 44.86174 9.32895 10957 ft 295 kts 351°
2026-05-05 20:28 44.88001 9.31823 10960 ft 282 kts 319°
2026-05-05 20:29 44.89092 9.29584 10967 ft 283 kts 290°
2026-05-05 20:29 44.89552 9.26864 10975 ft 283 kts 283°
2026-05-05 20:29 44.90041 9.24169 10976 ft 282 kts 288°
2026-05-05 20:29 44.90721 9.21562 10978 ft 282 kts 294°
2026-05-05 20:30 44.91548 9.19058 10980 ft 282 kts 297°
2026-05-05 20:30 44.92477 9.16610 10981 ft 282 kts 300°
2026-05-05 20:30 44.93456 9.14234 10982 ft 281 kts 301°